This demonstration page uses our WeatherBlox Daily Observations layout. Learn more.

Left ArrowRight Arrow

Hourly Observations for June 13, 2020

Temp ( °F °C ) Dew Point ( °F °C ) Humidity (%) Winds ( mph kmh ) Pressure ( in mb ) Visibility ( mi km ) Precip ( " mm )
12:53 am 00:53 Clear 73 22.8 50 10 44 44 E 14 22 29.66 1004 10 16 N/A
1:53 am 01:53 Clear 80 26.7 45 7.2 29 29 SSE 22 35 29.61 1003 10 16 N/A
2:53 am 02:53 Clear 75 23.9 46 7.8 36 36 E 13 20 29.60 1002 10 16 N/A
3:53 am 03:53 Clear 66 18.9 50 10 56 56 ENE 14 22 29.59 1002 10 16 N/A
4:26 am 04:26 Clear with Thunderstorms 65 18.3 51 10.6 61 61 E 10 17 29.60 1002 10 16 N/A
4:51 am 04:51 Clear 64 18 52 11 64 64 ENE 17 28 29.57 1001 10 16 N/A
4:53 am 04:53 Clear 65 18.3 51 10.6 61 61 ENE 15 24 29.58 1002 10 16 N/A
5:53 am 05:53 Sunny 65 18.3 51 10.6 61 61 E 17 28 29.55 1001 10 16 N/A
6:53 am 06:53 Sunny 65 18.3 51 10.6 61 61 ENE 18 30 29.54 1000 10 16 N/A
7:53 am 07:53 Sunny 65 18.3 53 11.7 66 66 S 8 13 29.55 1001 10 16 N/A
8:53 am 08:53 Sunny 66 18.9 53 11.7 63 63 S 6 9 29.55 1001 10 16 N/A
9:53 am 09:53 Sunny 68 20 54 12.2 61 61 S 8 13 29.54 1000 10 16 N/A
10:53 am 10:53 Sunny 71 21.7 55 12.8 57 57 SSW 14 22 29.54 1000 10 16 N/A
11:53 am 11:53 Sunny 75 23.9 55 12.8 50 50 WSW 10 17 29.53 1000 10 16 N/A
12:53 pm 12:53 Sunny 77 25 53 11.7 43 43 N N/A 29.53 1000 10 16 N/A
1:53 pm 13:53 Sunny 81 27.2 54 12.2 39 39 ENE 6 9 29.47 998 10 16 N/A
2:53 pm 14:53 Sunny 83 28.3 56 13.3 40 40 E 8 13 29.47 998 10 16 N/A
3:53 pm 15:53 Sunny 90 32.2 51 10.6 26 26 E 12 19 29.44 997 10 16 N/A
4:53 pm 16:53 Sunny 92 33.3 46 7.8 21 21 E 9 15 29.42 996 10 16 N/A
5:53 pm 17:53 Sunny 89 31.7 52 11.1 28 28 E 14 22 29.41 996 10 16 N/A
6:53 pm 18:53 Sunny 83 28.3 53 11.7 36 36 E 9 15 29.42 996 10 16 N/A
7:13 pm 19:13 Windy with Storms Likely 76 24.4 50 10 40 40 SSW 32 52 29.39 995 10 16 0.00 0.00
7:25 pm 19:25 Mostly Cloudy with Thunderstorms 76 24.4 48 8.9 37 37 SE 15 24 29.38 995 10 16 0.00 0.00
7:30 pm 19:30 Partly Cloudy 76 24.4 48 8.9 37 37 SSW 17 28 29.40 996 10 16 0.00 0.00
7:53 pm 19:53 Mostly Sunny 73 22.8 50 10 44 44 W 13 20 29.47 998 10 16 0.00 0.00
8:53 pm 20:53 Sunny 66 18.9 55 12.8 68 68 SSW 9 15 29.47 998 10 16 N/A
9:53 pm 21:53 Clear 68 20 51 10.6 55 55 W 28 44 29.49 999 10 16 N/A
10:53 pm 22:53 Clear 63 17.2 51 10.6 65 65 SSW 13 20 29.60 1002 10 16 N/A
11:00 pm 23:00 Clear 63 17.2 50 10 63 63 WSW 13 20 29.56 1001 10 16 N/A
11:53 pm 23:53 Clear 60 15.6 49 9.4 67 67 SW 12 19 29.61 1003 10 16 N/A

Powered by AerisWeather